ONEWEB-0055 (45443 NORAD) Tracking and Keplerian Element Data

This shows tracking and keplerian element data for the satellite.

Feedback or suggestion? Click here.




ElementValue
Catalog45443
NameONEWEB-0055
Epoch Orbit3213
Epoch Day297.91667824
Epoch Year2020
RAAN71.695
Inclination87.7925
Eccentricity0.0023672
Argument of Perigee240.4561
Mean Anonmoly62.6755
Mean Motion13.96832367
Decay Rate-0.00017155
L11 45443U 20020V 20297.91667824 -.00017155 00000-0 -12364-1 0 9995
L22 45443 87.7925 71.6950 0023672 240.4561 62.6755 13.96832367 32138

Live tracking and technical data element details for ONEWEB-0055 (NORAD 45443). ONEWEB-0055 can be tracked NOW for your location showing map with azimuth and elevation plus other details from your city location.

Track the satellite on the map from your city or location and see movement details for azimuth, elevation, latitude, longitude, range, height, and movement on the map or in text.







IsCatalogInMostPopularTable: catalog: 45443, numindb: 48
Update: records affected: 1



GetName: 45443 ONEWEB-0055

Hit Count: updated at: Sat, 24 Oct 2020 22:42:13 GMT